User: anonymous   Login
Location: Silent Lake
(44.9206°N, 78.0708°W)
Time: 03:42:09
(UTC-04:00)
Language:

Terra - Orbit

View from above orbital plane
View from above orbital plane
View from above satellite
View from above satellite

Ground track
Ground track

The orbit data is extracted from the following two-line orbital elements,

1 25994U 99068A   18230.67360858  .00000004  00000-0  11024-4 0  9994
2 25994  98.2014 304.6269 0000758  92.8116 267.3164 14.57115114992922
Epoch (UTC): 18 August 2018 16:09:59
Eccentricity: 0.0000758
inclination: 98.2014°
perigee height: 702 km
apogee height: 703 km
right ascension of ascending node: 304.6269°
argument of perigee: 92.8116°
revolutions per day: 14.57115114
mean anomaly at epoch: 267.3164°
orbit number at epoch: 99292

The dashed part of the orbit path shows where the satellite is in the earth's shadow,  

DLR